Location: Alphen
(52.1351°N, 4.6549°E)
Time: 01:53:51
(UTC+00:00)

Cosmos 1726 Rocket - Pass Details

Date: 27 January 2021
Orbit: 604 x 628 km, 82.5° (Epoch: 27 February)

Event Time Altitude Azimuth Distance (km) Brightness Sun altitude
Rises 06:12:54 0° 198° (SSW) 2,847 6.9 -11.6°
Reaches altitude 10° 06:15:08 10° 201° (SSW) 1,949 6.1 -11.3°
Maximum altitude 06:19:24 63° 283° (WNW) 681 3.5 -10.7°
Drops below altitude 10° 06:23:43 10° 5° (N) 1,970 6.0 -10.0°
Sets 06:25:59 0° 9° (N) 2,881 6.9 -9.7°
